Location: Stanford
(52.2833°N, 2.4333°W)
Time: 23:37:58
(UTC+00:00)

SL-08 RB Rocket - Pass Details

Date: 22 January 2021
Orbit: 647 x 683 km, 97.8° (Epoch: 01 March)

Event Time Altitude Azimuth Distance (km) Brightness Sun altitude
Exits shadow 19:08:00 56° 131° (SE) 782 3.7 -22.3°
Maximum altitude 19:08:49 71° 73° (ENE) 697 3.5 -22.5°
Drops below altitude 10° 19:13:19 10° 350° (N) 2,070 6.3 -23.2°
Sets 19:15:32 0° 348° (NNW) 2,982 7.2 -23.5°
